Stations météo

Publicité
Fyvie castle, Grande-Bretagne (99010): Température de l'air & dewpoint: 16.07.2019 17:00:00 - 22.07.2019 17:00:00 (BST)Fyvie castle, Grande-Bretagne (99010): Quantités de précipitations: 16.07.2019 17:00:00 - 22.07.2019 17:00:00 (BST)
Date & Time tt [°C] td [°C] rr [mm]
22.07.2019 17:00:00 24,1 17,2 0,0
22.07.2019 16:00:00 24,2 18,2 0,0
22.07.2019 15:00:00 23,6 18,7 0,0
22.07.2019 14:00:00 23,9 18,2 0,0
22.07.2019 13:00:00 22,7 18,5 0,2
22.07.2019 12:00:00 21,2 17,4 0,0
22.07.2019 11:00:00 22,2 18,3 0,0
22.07.2019 10:00:00 19,8 17,2 0,0
22.07.2019 09:00:00 17,7 15,6 0,0
22.07.2019 08:00:00 16,3 15,5 0,0
22.07.2019 07:00:00 15,4 14,7 0,0
22.07.2019 06:00:00 14,7 14,4 0,0
22.07.2019 05:00:00 14,8 14,4 0,0
22.07.2019 04:00:00 14,8 14,3 0,0
22.07.2019 03:00:00 14,9 14,1 0,2
22.07.2019 02:00:00 15,1 14,3 0,8
22.07.2019 01:00:00 15,8 14,3 0,2
22.07.2019 00:00:00 16,3 14,2 0,0
21.07.2019 23:00:00 15,6 13,8 0,0
21.07.2019 22:00:00 15,7 13,6 0,0
21.07.2019 21:00:00 15,4 13,6 0,0
21.07.2019 20:00:00 15,9 13,2 0,0
21.07.2019 19:00:00 16,4 13,1 0,0
21.07.2019 18:00:00 17,6 12,8 0,0
21.07.2019 17:00:00 18,7 11,6 0,0
21.07.2019 16:00:00 19,5 11,5 0,0
21.07.2019 15:00:00 20,0 10,7 0,0
21.07.2019 14:00:00 20,7 12,8 0,0
21.07.2019 13:00:00 19,9 11,8 0,0
21.07.2019 12:00:00 19,1 12,2 0,0
21.07.2019 11:00:00 18,0 12,4 0,0
21.07.2019 10:00:00 17,7 11,7 0,0
21.07.2019 09:00:00 16,3 11,9 0,0
21.07.2019 08:00:00 12,9 11,9 0,0
21.07.2019 07:00:00 11,2 10,9 0,0
21.07.2019 06:00:00 10,9 10,8 0,0
21.07.2019 05:00:00 10,1 10,1 0,0
21.07.2019 04:00:00 9,1 9,1 0,0
21.07.2019 03:00:00 9,0 8,2 0,0
21.07.2019 02:00:00 10,4 9,5 0,0
21.07.2019 01:00:00 12,2 11,0 0,0
21.07.2019 00:00:00 13,0 11,1 0,0
20.07.2019 23:00:00 14,3 11,2 0,0
20.07.2019 22:00:00 14,2 11,8 0,0
20.07.2019 21:00:00 15,6 11,4 0,0
20.07.2019 20:00:00 16,2 11,9 0,0
20.07.2019 19:00:00 16,5 10,9 0,0
20.07.2019 18:00:00 17,0 12,3 0,0
20.07.2019 17:00:00 18,2 14,0 0,0
20.07.2019 16:00:00 18,0 14,3 0,0
20.07.2019 15:00:00 18,3 13,8 0,0
20.07.2019 14:00:00 18,3 14,1 0,0
20.07.2019 13:00:00 17,2 14,4 0,0
20.07.2019 12:00:00 17,2 14,4 0,0
20.07.2019 11:00:00 16,7 14,5 0,0
20.07.2019 10:00:00 17,4 16,0 0,0
20.07.2019 09:00:00 16,9 16,3 0,2
20.07.2019 08:00:00 14,7 14,7 3,4
20.07.2019 07:00:00 14,7 14,6 1,8
20.07.2019 06:00:00 14,5 14,5 0,0
20.07.2019 05:00:00 14,3 14,2 0,2
20.07.2019 04:00:00 14,1 14,0 0,0
20.07.2019 03:00:00 14,2 13,9 0,2
20.07.2019 02:00:00 14,3 14,1 0,4
20.07.2019 01:00:00 14,2 13,9 1,4
20.07.2019 00:00:00 14,1 13,7 0,4
19.07.2019 23:00:00 14,0 13,2 0,6
19.07.2019 22:00:00 14,5 12,8 0,0
19.07.2019 21:00:00 15,4 12,5 0,0
19.07.2019 20:00:00 16,4 12,3 0,0
19.07.2019 19:00:00 17,8 11,3 0,0
19.07.2019 18:00:00 18,6 11,8 0,0
19.07.2019 17:00:00 19,1 11,7 0,0
19.07.2019 16:00:00 19,8 12,5 0,0
19.07.2019 15:00:00 20,3 12,8 0,0
19.07.2019 14:00:00 20,7 13,5 0,0
19.07.2019 13:00:00 18,7 11,1 0,0
19.07.2019 12:00:00 19,7 11,3 0,0
19.07.2019 11:00:00 18,3 12,2 0,0
19.07.2019 10:00:00 16,7 12,0 0,0
19.07.2019 09:00:00 14,7 12,2 0,0
19.07.2019 08:00:00 13,8 12,1 0,0
19.07.2019 07:00:00 11,6 11,5 0,0
19.07.2019 06:00:00 10,0 10,0 0,0
19.07.2019 05:00:00 9,2 9,1 0,0
19.07.2019 04:00:00 9,2 9,2 0,0
19.07.2019 03:00:00 9,1 9,0 0,0
19.07.2019 02:00:00 9,5 9,3 0,0
19.07.2019 01:00:00 9,7 9,1 0,0
19.07.2019 00:00:00 11,0 10,4 0,0
18.07.2019 23:00:00 12,1 11,2 0,0
18.07.2019 22:00:00 13,2 12,3 0,0
18.07.2019 21:00:00 14,6 13,0 0,0
18.07.2019 20:00:00 15,3 14,3 0,0
18.07.2019 19:00:00 15,7 13,9 0,0
18.07.2019 18:00:00 15,6 15,3 7,4
18.07.2019 17:00:00 15,2 13,6 1,4
18.07.2019 16:00:00 15,8 12,6 1,2
18.07.2019 15:00:00 16,0 12,9 0,4
18.07.2019 14:00:00 16,3 13,4 0,0
18.07.2019 13:00:00 - - 0,0
18.07.2019 12:00:00 - - 0,0
18.07.2019 11:00:00 19,8 10,7 0,0
18.07.2019 10:00:00 16,3 13,3 0,0
18.07.2019 09:00:00 14,9 12,8 0,0
18.07.2019 08:00:00 12,9 12,7 0,0
18.07.2019 07:00:00 12,3 12,1 0,0
18.07.2019 06:00:00 11,7 11,4 0,0
18.07.2019 05:00:00 11,7 11,3 0,4
18.07.2019 04:00:00 12,1 11,5 1,4
18.07.2019 03:00:00 13,3 12,8 4,0
18.07.2019 02:00:00 14,1 13,7 4,8
18.07.2019 01:00:00 14,3 13,8 1,0
18.07.2019 00:00:00 14,4 13,8 0,2
17.07.2019 23:00:00 14,5 13,8 0,0
17.07.2019 22:00:00 14,6 13,8 0,2
17.07.2019 21:00:00 14,9 13,9 0,6
17.07.2019 20:00:00 15,4 14,3 0,2
17.07.2019 19:00:00 15,9 14,2 0,4
17.07.2019 18:00:00 17,0 14,1 0,0
17.07.2019 17:00:00 18,1 14,0 0,0
17.07.2019 16:00:00 17,0 14,3 0,4
17.07.2019 15:00:00 18,1 15,3 0,0
17.07.2019 14:00:00 18,8 14,6 0,0
17.07.2019 13:00:00 19,4 14,1 0,0
17.07.2019 12:00:00 18,8 14,8 0,0
17.07.2019 11:00:00 17,3 14,9 0,0
17.07.2019 10:00:00 16,6 14,7 0,0
17.07.2019 09:00:00 15,0 14,9 0,0
17.07.2019 08:00:00 14,8 14,8 0,0
17.07.2019 07:00:00 12,7 12,7 0,0
17.07.2019 06:00:00 11,6 11,6 0,0
17.07.2019 05:00:00 11,0 10,9 0,0
17.07.2019 04:00:00 10,9 10,7 0,0
17.07.2019 03:00:00 11,1 10,8 0,0
17.07.2019 02:00:00 11,5 11,0 0,0
17.07.2019 01:00:00 12,5 12,1 0,0
17.07.2019 00:00:00 13,4 12,5 0,0
16.07.2019 23:00:00 14,9 14,5 0,0
16.07.2019 22:00:00 15,1 14,2 0,0
16.07.2019 21:00:00 16,7 14,9 0,0
16.07.2019 20:00:00 17,6 15,6 0,0
16.07.2019 19:00:00 18,0 15,3 0,0
16.07.2019 18:00:00 16,4 15,8 0,0
16.07.2019 17:00:00 15,7 14,8 15,4

tt = Température de l'air
td = dewpoint
rr = Quantités de précipitations

stations d'obs. à proximité